KC7MRQ Weather Reports


Display with metric or nautical units.
time (UTC)temp
F
wind
direction
speed
MPH
gust
MPH
rain 1hr
in
rain 24hr
in
rain mn
in
humidity
%
barometer
mb
20260509203040 58 227 6.0 17.0 0.00 0.00 0.00 32 1014.4
20260509201539 59 223 12.0 18.0 0.00 0.00 0.00 30 1014.4
20260509200136 58 355 7.0 13.0 0.00 0.00 0.00 32 1014.4
20260509194537 57 217 4.0 18.0 0.00 0.00 0.00 31 1014.5
20260509193034 57 213 8.0 17.0 0.00 0.00 0.00 32 1014.6
20260509191534 57 150 4.0 14.0 0.00 0.00 0.00 31 1014.7
20260509190032 56 229 11.0 16.0 0.00 0.00 0.00 32 1014.7
20260509184538 55 173 8.0 11.0 0.00 0.00 0.00 33 1014.8
20260509183028 54 180 6.0 17.0 0.00 0.00 0.00 36 1014.8
20260509181527 53 212 12.0 17.0 0.00 0.00 0.00 36 1014.9
20260509180026 53 221 14.0 20.0 0.00 0.00 0.00 36 1014.9
20260509174533 53 244 10.0 18.0 0.00 0.00 0.00 37 1014.8
20260509173027 52 200 11.0 15.0 0.00 0.00 0.00 38 1014.7
20260509171522 52 235 9.0 22.0 0.00 0.00 0.00 37 1014.6
20260509170021 54 225 14.0 21.0 0.00 0.00 0.00 34 1014.3
20260509164519 53 229 12.0 20.0 0.00 0.00 0.00 36 1014.1
20260509163023 53 223 15.0 23.0 0.00 0.00 0.00 37 1014.0
20260509161515 53 202 14.0 19.0 0.00 0.00 0.00 36 1013.9
20260509160013 52 202 12.0 23.0 0.00 0.00 0.00 38 1013.8
20260509154510 52 237 15.0 23.0 0.00 0.00 0.00 39 1013.9
20260509153008 51 219 18.0 25.0 0.00 0.00 0.00 38 1013.7
20260509151505 50 345 15.0 23.0 0.00 0.00 0.00 42 1013.5
20260509150002 49 345 17.0 25.0 0.00 0.00 0.00 43 1013.5
20260509144604 49 345 15.0 23.0 0.00 0.00 0.00 45 1013.6
20260509143059 47 203 11.0 16.0 0.00 0.00 0.00 46 1013.5
20260509141607 46 238 12.0 16.0 0.00 0.00 0.00 47 1013.5
20260509140103 45 236 9.0 13.0 0.00 0.00 0.00 48 1013.6
20260509134557 46 206 3.0 8.0 0.00 0.00 0.00 48 1013.5
20260509133057 45 345 1.0 4.0 0.00 0.00 0.00 50 1013.6
20260509131555 42 345 3.0 5.0 0.00 0.00 0.00 59 1013.6
20260509130053 41 345 3.0 6.0 0.00 0.00 0.00 57 1013.5
20260509124557 40 345 3.0 5.0 0.00 0.00 0.00 57 1013.4
20260509123054 42 345 2.0 3.0 0.00 0.00 0.00 52 1013.3
20260509121544 43 345 1.0 3.0 0.00 0.00 0.00 50 1013.2
20260509120040 44 345 5.0 11.0 0.00 0.00 0.00 48 1013.0
20260509114540 45 345 9.0 15.0 0.00 0.00 0.00 47 1012.8
20260509113042 45 345 3.0 10.0 0.00 0.00 0.00 48 1012.7
20260509111544 45 345 4.0 6.0 0.00 0.00 0.00 49 1012.6
20260509110032 45 345 4.0 8.0 0.00 0.00 0.00 48 1012.6
20260509104534 45 345 2.0 10.0 0.00 0.00 0.00 47 1012.6
20260509103030 45 345 4.0 12.0 0.00 0.00 0.00 46 1012.6
20260509101531 45 345 5.0 8.0 0.00 0.00 0.00 46 1012.4
20260509100029 45 345 7.0 13.0 0.00 0.00 0.00 45 1012.3
20260509094528 46 345 3.0 13.0 0.00 0.00 0.00 44 1012.3
20260509093021 44 345 1.0 6.0 0.00 0.00 0.00 44 1012.3
20260509091520 45 345 1.0 11.0 0.00 0.00 0.00 43 1012.1
20260509090019 45 345 4.0 9.0 0.00 0.00 0.00 43 1012.1
20260509084516 45 345 7.0 11.0 0.00 0.00 0.00 43 1011.9
20260509083015 46 345 4.0 8.0 0.00 0.00 0.00 40 1011.9
20260509081510 46 345 3.0 5.0 0.00 0.00 0.00 40 1011.6
20260509080006 46 345 4.0 5.0 0.00 0.00 0.00 40 1011.2
20260509074506 47 345 2.0 5.0 0.00 0.00 0.00 40 1011.2
20260509073007 47 345 2.0 4.0 0.00 0.00 0.00 39 1011.2
20260509071501 47 345 3.0 6.0 0.00 0.00 0.00 39 1011.0
20260509064556 48 345 2.0 8.0 0.00 0.00 0.00 37 1010.8
20260509063100 48 345 6.0 9.0 0.00 0.00 0.00 36 1010.5
20260509061606 48 345 5.0 9.0 0.00 0.00 0.00 37 1010.5
20260509060050 49 345 5.0 10.0 0.00 0.00 0.00 36 1010.5
20260509054557 49 345 5.0 7.0 0.00 0.00 0.00 38 1010.4
20260509053058 52 217 3.0 5.0 0.00 0.00 0.00 33 1010.5
20260509051550 53 345 4.0 11.0 0.00 0.00 0.00 33 1010.4
20260509050049 52 345 7.0 12.0 0.00 0.00 0.00 35 1010.0
20260509044549 53 345 5.0 10.0 0.00 0.00 0.00 35 1009.9
20260509043043 54 198 6.0 12.0 0.00 0.00 0.00 38 1009.9
20260509041543 55 81 1.0 6.0 0.00 0.00 0.00 37 1009.8
20260509040043 55 286 3.0 10.0 0.00 0.00 0.00 37 1009.7
20260509034542 56 208 7.0 10.0 0.00 0.00 0.00 36 1009.7
20260509033041 56 199 9.0 13.0 0.00 0.00 0.00 36 1009.5
20260509031540 57 213 8.0 11.0 0.00 0.00 0.00 36 1009.3
20260509030041 57 206 5.0 11.0 0.00 0.00 0.00 36 1009.2
20260509024539 57 211 4.0 10.0 0.00 0.00 0.00 37 1009.0
20260509023039 58 216 8.0 14.0 0.00 0.00 0.00 36 1008.9
20260509021538 58 224 11.0 20.0 0.00 0.00 0.00 36 1008.9
20260509020039 59 203 12.0 21.0 0.00 0.00 0.00 37 1008.7
20260509014536 59 232 6.0 22.0 0.00 0.00 0.00 35 1008.5
20260509013036 60 202 9.0 21.0 0.00 0.00 0.00 36 1008.3
20260509011536 61 181 8.0 16.0 0.00 0.00 0.00 35 1008.2
20260509010037 61 218 11.0 18.0 0.00 0.00 0.00 34 1008.2
20260509004538 61 250 7.0 16.0 0.00 0.00 0.00 34 1008.2
20260509003037 62 224 10.0 20.0 0.00 0.00 0.00 34 1008.2
20260509001531 62 217 8.0 17.0 0.00 0.00 0.00 35 1008.3
20260509000031 63 214 9.0 20.0 0.00 0.00 0.00 35 1008.1
20260508234532 63 216 12.0 17.0 0.00 0.00 0.00 34 1008.1
20260508233030 64 235 10.0 16.0 0.00 0.00 0.00 33 1007.9
20260508231529 65 168 5.0 14.0 0.00 0.00 0.00 30 1007.7
20260508230029 65 212 8.0 18.0 0.00 0.00 0.00 32 1007.9
20260508224531 65 229 14.0 21.0 0.00 0.00 0.00 30 1007.8
20260508223037 66 205 8.0 20.0 0.00 0.00 0.00 28 1007.9
20260508221525 66 208 9.0 20.0 0.00 0.00 0.00 28 1008.0
20260508220027 65 260 3.0 19.0 0.00 0.00 0.00 29 1008.0
20260508214523 66 302 12.0 24.0 0.00 0.00 0.00 28 1008.1
20260508213020 65 271 16.0 27.0 0.00 0.00 0.00 26 1008.1
20260508211520 66 269 15.0 24.0 0.00 0.00 0.00 25 1008.3
20260508210020 66 262 12.0 21.0 0.00 0.00 0.00 29 1008.6
20260508204516 66 214 10.0 16.0 0.00 0.00 0.00 29 1008.6